Time,TemperatureF,DewpointF,PressureIn,WindDirection,WindDirectionDegrees,WindSpeedMPH,WindSpeedGustMPH,Humidity,HourlyPrecipIn,Conditions,Clouds,dailyrainin,SoftwareType,DateUTC
2013-03-16 00:14:00,56.1,46.0,30.19,SSW,209,0.0,-999.0,68,-99.99,,,0.00,weatherlink.com 1.10,2013-03-16 04:14:00,
2013-03-16 00:29:00,56.3,46.0,30.18,SSW,209,0.0,-999.0,68,-99.99,,,0.00,weatherlink.com 1.10,2013-03-16 04:29:00,
2013-03-16 00:44:00,56.3,46.0,30.18,SSW,209,0.0,-999.0,69,-99.99,,,0.00,weatherlink.com 1.10,2013-03-16 04:44:00,
2013-03-16 00:59:00,55.5,47.0,30.18,SSW,209,0.0,-999.0,72,-99.99,,,0.00,weatherlink.com 1.10,2013-03-16 04:59:00,
2013-03-16 01:14:00,55.4,46.0,30.18,SSW,209,0.0,-999.0,72,-99.99,,,0.00,weatherlink.com 1.10,2013-03-16 05:14:00,
2013-03-16 01:30:00,54.7,47.0,30.18,SSW,209,0.0,-999.0,76,-99.99,,,0.00,weatherlink.com 1.10,2013-03-16 05:30:00,
2013-03-16 01:44:00,54.2,47.0,30.17,SSW,209,0.0,-999.0,77,-99.99,,,0.00,weatherlink.com 1.10,2013-03-16 05:44:00,
2013-03-16 01:59:00,53.6,47.0,30.17,SSW,209,0.0,-999.0,78,-99.99,,,0.00,weatherlink.com 1.10,2013-03-16 05:59:00,
2013-03-16 02:14:00,53.1,47.0,30.17,SSW,209,0.0,-999.0,79,-99.99,,,0.00,weatherlink.com 1.10,2013-03-16 06:14:00,
2013-03-16 02:29:00,53.4,47.0,30.16,SSW,209,0.0,-999.0,79,-99.99,,,0.00,weatherlink.com 1.10,2013-03-16 06:29:00,
2013-03-16 02:45:00,53.2,47.0,30.16,SSW,209,0.0,-999.0,79,-99.99,,,0.00,weatherlink.com 1.10,2013-03-16 06:45:00,
2013-03-16 02:59:00,52.5,47.0,30.16,SSW,209,0.0,-999.0,80,-99.99,,,0.00,weatherlink.com 1.10,2013-03-16 06:59:00,
2013-03-16 03:14:00,51.9,47.0,30.17,SSW,209,0.0,-999.0,83,-99.99,,,0.00,weatherlink.com 1.10,2013-03-16 07:14:00,
2013-03-16 03:29:00,51.4,47.0,30.17,SSW,209,0.0,-999.0,85,-99.99,,,0.00,weatherlink.com 1.10,2013-03-16 07:29:00,
2013-03-16 03:44:00,51.2,47.0,30.16,SSW,209,0.0,-999.0,85,-99.99,,,0.00,weatherlink.com 1.10,2013-03-16 07:44:00,
2013-03-16 04:00:00,51.0,47.0,30.15,SSW,209,0.0,-999.0,86,-99.99,,,0.00,weatherlink.com 1.10,2013-03-16 08:00:00,
2013-03-16 04:14:00,50.3,46.0,30.15,SSW,209,0.0,-999.0,86,-99.99,,,0.00,weatherlink.com 1.10,2013-03-16 08:14:00,
2013-03-16 04:30:00,50.1,47.0,30.15,SSW,209,0.0,-999.0,89,-99.99,,,0.00,weatherlink.com 1.10,2013-03-16 08:30:00,
2013-03-16 04:45:00,50.6,47.0,30.14,SSW,209,0.0,-999.0,87,-99.99,,,0.00,weatherlink.com 1.10,2013-03-16 08:45:00,
2013-03-16 04:59:00,50.5,47.0,30.14,SSW,209,0.0,-999.0,88,-99.99,,,0.00,weatherlink.com 1.10,2013-03-16 08:59:00,
2013-03-16 05:14:00,50.6,47.0,30.15,SSW,209,0.0,-999.0,86,-99.99,,,0.00,weatherlink.com 1.10,2013-03-16 09:14:00,
2013-03-16 05:29:00,50.6,47.0,30.15,SSW,209,0.0,-999.0,87,-99.99,,,0.00,weatherlink.com 1.10,2013-03-16 09:29:00,
2013-03-16 05:44:00,51.2,47.0,30.15,SSW,209,0.0,-999.0,85,-99.99,,,0.00,weatherlink.com 1.10,2013-03-16 09:44:00,
2013-03-16 06:02:00,51.2,47.0,30.15,SSW,209,0.0,-999.0,85,-99.99,,,0.00,weatherlink.com 1.10,2013-03-16 10:02:00,
2013-03-16 06:14:00,51.4,47.0,30.15,SSW,209,0.0,-999.0,84,-99.99,,,0.00,weatherlink.com 1.10,2013-03-16 10:14:00,
2013-03-16 06:29:00,51.0,46.0,30.16,SSW,209,0.0,-999.0,84,-99.99,,,0.00,weatherlink.com 1.10,2013-03-16 10:29:00,
2013-03-16 06:44:00,50.5,46.0,30.16,SSW,209,0.0,-999.0,84,-99.99,,,0.00,weatherlink.com 1.10,2013-03-16 10:44:00,
2013-03-16 06:59:00,50.8,46.0,30.15,SSW,209,0.0,-999.0,83,-99.99,,,0.00,weatherlink.com 1.10,2013-03-16 10:59:00,
2013-03-16 07:14:00,50.7,46.0,30.16,SSW,209,0.0,-999.0,84,-99.99,,,0.00,weatherlink.com 1.10,2013-03-16 11:14:00,
2013-03-16 07:29:00,51.0,46.0,30.16,SSW,209,0.0,-999.0,83,-99.99,,,0.00,weatherlink.com 1.10,2013-03-16 11:29:00,
2013-03-16 07:59:00,52.1,46.0,30.17,SSW,211,1.0,-999.0,79,-99.99,,,0.00,weatherlink.com 1.10,2013-03-16 11:59:00,
2013-03-16 08:14:00,52.7,46.0,30.18,SSW,211,0.0,-999.0,79,-99.99,,,0.00,weatherlink.com 1.10,2013-03-16 12:14:00,
2013-03-16 08:29:00,54.0,48.0,30.18,SSW,212,0.0,-999.0,79,-99.99,,,0.00,weatherlink.com 1.10,2013-03-16 12:29:00,
2013-03-16 08:44:00,55.4,48.0,30.18,SSW,212,0.0,-999.0,75,-99.99,,,0.00,weatherlink.com 1.10,2013-03-16 12:44:00,
2013-03-16 09:01:00,56.8,48.0,30.18,SSW,212,2.0,-999.0,73,-99.99,,,0.00,weatherlink.com 1.10,2013-03-16 13:01:00,
2013-03-16 09:14:00,57.7,49.0,30.19,SSW,212,4.0,-999.0,72,-99.99,,,0.00,weatherlink.com 1.10,2013-03-16 13:14:00,
2013-03-16 09:30:00,58.9,48.0,30.19,SSW,209,4.0,-999.0,68,-99.99,,,0.00,weatherlink.com 1.10,2013-03-16 13:30:00,
2013-03-16 09:44:00,60.3,49.0,30.19,SSW,200,5.0,-999.0,66,-99.99,,,0.00,weatherlink.com 1.10,2013-03-16 13:44:00,
2013-03-16 09:59:00,61.8,49.0,30.19,SW,227,2.0,-999.0,63,-99.99,,,0.00,weatherlink.com 1.10,2013-03-16 13:59:00,
2013-03-16 10:14:00,62.9,47.0,30.19,SSW,205,3.0,-999.0,57,-99.99,,,0.00,weatherlink.com 1.10,2013-03-16 14:14:00,
2013-03-16 10:29:00,63.8,45.0,30.19,SW,215,4.0,-999.0,50,-99.99,,,0.00,weatherlink.com 1.10,2013-03-16 14:29:00,
2013-03-16 10:45:00,65.2,44.0,30.19,SW,226,6.0,-999.0,47,-99.99,,,0.00,weatherlink.com 1.10,2013-03-16 14:45:00,
2013-03-16 11:02:00,66.6,43.0,30.18,South,180,6.0,-999.0,42,-99.99,,,0.00,weatherlink.com 1.10,2013-03-16 15:02:00,
2013-03-16 11:15:00,67.0,42.0,30.18,SSW,204,7.0,-999.0,40,-99.99,,,0.00,weatherlink.com 1.10,2013-03-16 15:15:00,
2013-03-16 11:29:00,68.3,42.0,30.17,WSW,249,5.0,-999.0,39,-99.99,,,0.00,weatherlink.com 1.10,2013-03-16 15:29:00,
2013-03-16 11:45:00,69.2,43.0,30.17,SW,222,9.0,-999.0,39,-99.99,,,0.00,weatherlink.com 1.10,2013-03-16 15:45:00,
2013-03-16 11:59:00,70.1,43.0,30.17,SSW,199,9.0,-999.0,37,-99.99,,,0.00,weatherlink.com 1.10,2013-03-16 15:59:00,
2013-03-16 12:14:00,71.4,43.0,30.16,West,274,0.0,-999.0,36,-99.99,,,0.00,weatherlink.com 1.10,2013-03-16 16:14:00,
2013-03-16 12:31:00,72.3,42.0,30.16,SSW,209,8.0,-999.0,34,-99.99,,,0.00,weatherlink.com 1.10,2013-03-16 16:31:00,
2013-03-16 12:44:00,72.9,44.0,30.15,NW,314,1.0,-999.0,35,-99.99,,,0.00,weatherlink.com 1.10,2013-03-16 16:44:00,
2013-03-16 12:59:00,73.3,43.0,30.15,SSE,167,6.0,-999.0,34,-99.99,,,0.00,weatherlink.com 1.10,2013-03-16 16:59:00,
2013-03-16 13:14:00,74.3,43.0,30.14,SW,227,0.0,-999.0,33,-99.99,,,0.00,weatherlink.com 1.10,2013-03-16 17:14:00,
2013-03-16 13:29:00,75.0,42.0,30.13,SW,234,1.0,-999.0,31,-99.99,,,0.00,weatherlink.com 1.10,2013-03-16 17:29:00,
2013-03-16 13:46:00,76.4,43.0,30.12,SW,219,6.0,-999.0,30,-99.99,,,0.00,weatherlink.com 1.10,2013-03-16 17:46:00,
2013-03-16 14:00:00,75.7,42.0,30.11,WSW,238,3.0,-999.0,30,-99.99,,,0.00,weatherlink.com 1.10,2013-03-16 18:00:00,
2013-03-16 14:15:00,76.4,44.0,30.11,WSW,241,5.0,-999.0,31,-99.99,,,0.00,weatherlink.com 1.10,2013-03-16 18:15:00,
2013-03-16 14:30:00,76.9,42.0,30.10,NNW,327,0.0,-999.0,29,-99.99,,,0.00,weatherlink.com 1.10,2013-03-16 18:30:00,
2013-03-16 14:59:00,77.6,43.0,30.09,WSW,250,2.0,-999.0,29,-99.99,,,0.00,weatherlink.com 1.10,2013-03-16 18:59:00,
2013-03-16 15:14:00,78.1,43.0,30.08,WSW,241,2.0,-999.0,29,-99.99,,,0.00,weatherlink.com 1.10,2013-03-16 19:14:00,
2013-03-16 15:29:00,79.4,43.0,30.07,NW,312,0.0,-999.0,27,-99.99,,,0.00,weatherlink.com 1.10,2013-03-16 19:29:00,
2013-03-16 15:44:00,79.6,43.0,30.07,NW,304,3.0,-999.0,27,-99.99,,,0.00,weatherlink.com 1.10,2013-03-16 19:44:00,
2013-03-16 15:59:00,80.0,44.0,30.06,WNW,303,8.0,-999.0,28,-99.99,,,0.00,weatherlink.com 1.10,2013-03-16 19:59:00,
2013-03-16 16:14:00,79.3,43.0,30.05,WNW,286,2.0,-999.0,28,-99.99,,,0.00,weatherlink.com 1.10,2013-03-16 20:14:00,
2013-03-16 16:29:00,80.2,43.0,30.05,NW,309,5.0,-999.0,27,-99.99,,,0.00,weatherlink.com 1.10,2013-03-16 20:29:00,
2013-03-16 16:44:00,80.2,43.0,30.05,SW,214,5.0,-999.0,27,-99.99,,,0.00,weatherlink.com 1.10,2013-03-16 20:44:00,
2013-03-16 16:59:00,79.6,43.0,30.05,WSW,240,4.0,-999.0,27,-99.99,,,0.00,weatherlink.com 1.10,2013-03-16 20:59:00,
2013-03-16 17:14:00,79.7,44.0,30.05,SSW,204,0.0,-999.0,28,-99.99,,,0.00,weatherlink.com 1.10,2013-03-16 21:14:00,
2013-03-16 17:29:00,80.0,44.0,30.05,West,271,2.0,-999.0,28,-99.99,,,0.00,weatherlink.com 1.10,2013-03-16 21:29:00,
2013-03-16 17:45:00,80.0,44.0,30.04,SW,236,0.0,-999.0,28,-99.99,,,0.00,weatherlink.com 1.10,2013-03-16 21:45:00,
2013-03-16 17:59:00,79.4,44.0,30.04,WNW,294,1.0,-999.0,28,-99.99,,,0.00,weatherlink.com 1.10,2013-03-16 21:59:00,
2013-03-16 18:29:00,79.3,44.0,30.04,West,260,1.0,-999.0,29,-99.99,,,0.00,weatherlink.com 1.10,2013-03-16 22:29:00,
2013-03-16 18:45:00,78.7,44.0,30.04,SW,235,2.0,-999.0,29,-99.99,,,0.00,weatherlink.com 1.10,2013-03-16 22:45:00,
2013-03-16 18:59:00,78.0,44.0,30.05,SW,221,0.0,-999.0,30,-99.99,,,0.00,weatherlink.com 1.10,2013-03-16 22:59:00,
2013-03-16 19:14:00,76.9,44.0,30.05,SW,222,6.0,-999.0,31,-99.99,,,0.00,weatherlink.com 1.10,2013-03-16 23:14:00,
2013-03-16 19:29:00,76.1,44.0,30.05,SW,223,6.0,-999.0,32,-99.99,,,0.00,weatherlink.com 1.10,2013-03-16 23:29:00,
2013-03-16 19:44:00,75.3,44.0,30.05,SSW,211,4.0,-999.0,33,-99.99,,,0.00,weatherlink.com 1.10,2013-03-16 23:44:00,
2013-03-16 19:59:00,74.5,43.0,30.05,SSW,211,1.0,-999.0,33,-99.99,,,0.00,weatherlink.com 1.10,2013-03-16 23:59:00,
2013-03-16 20:14:00,73.9,44.0,30.06,SSW,213,1.0,-999.0,34,-99.99,,,0.00,weatherlink.com 1.10,2013-03-17 00:14:00,
2013-03-16 20:29:00,73.1,44.0,30.06,NNW,341,1.0,-999.0,35,-99.99,,,0.00,weatherlink.com 1.10,2013-03-17 00:29:00,
2013-03-16 20:44:00,72.1,45.0,30.07,NW,306,1.0,-999.0,38,-99.99,,,0.00,weatherlink.com 1.10,2013-03-17 00:44:00,
2013-03-16 20:59:00,71.1,44.0,30.07,WSW,242,5.0,-999.0,38,-99.99,,,0.00,weatherlink.com 1.10,2013-03-17 00:59:00,
2013-03-16 21:14:00,70.4,43.0,30.08,WNW,296,1.0,-999.0,38,-99.99,,,0.00,weatherlink.com 1.10,2013-03-17 01:14:00,
2013-03-16 21:29:00,69.7,44.0,30.09,West,274,6.0,-999.0,39,-99.99,,,0.00,weatherlink.com 1.10,2013-03-17 01:29:00,
2013-03-16 21:44:00,68.9,42.0,30.09,WNW,293,0.0,-999.0,38,-99.99,,,0.00,weatherlink.com 1.10,2013-03-17 01:44:00,
2013-03-16 21:59:00,68.3,41.0,30.09,West,267,2.0,-999.0,37,-99.99,,,0.00,weatherlink.com 1.10,2013-03-17 01:59:00,
2013-03-16 22:14:00,67.5,41.0,30.09,NW,306,2.0,-999.0,38,-99.99,,,0.00,weatherlink.com 1.10,2013-03-17 02:14:00,
2013-03-16 22:29:00,66.9,42.0,30.10,WSW,256,0.0,-999.0,40,-99.99,,,0.00,weatherlink.com 1.10,2013-03-17 02:29:00,
2013-03-16 22:44:00,66.2,42.0,30.11,West,273,0.0,-999.0,42,-99.99,,,0.00,weatherlink.com 1.10,2013-03-17 02:44:00,
2013-03-16 22:59:00,65.6,42.0,30.11,West,263,2.0,-999.0,43,-99.99,,,0.00,weatherlink.com 1.10,2013-03-17 02:59:00,
2013-03-16 23:14:00,64.9,42.0,30.11,West,269,0.0,-999.0,44,-99.99,,,0.00,weatherlink.com 1.10,2013-03-17 03:14:00,
2013-03-16 23:29:00,64.5,43.0,30.12,WSW,258,0.0,-999.0,45,-99.99,,,0.00,weatherlink.com 1.10,2013-03-17 03:29:00,
2013-03-16 23:44:00,63.8,42.0,30.11,WSW,258,0.0,-999.0,46,-99.99,,,0.00,weatherlink.com 1.10,2013-03-17 03:44:00,
2013-03-16 23:59:00,63.2,43.0,30.11,WSW,258,2.0,-999.0,48,-99.99,,,0.00,weatherlink.com 1.10,2013-03-17 03:59:00,